Starlink 3611

operational
NORAD ID: 51779 Int'l Des: 2022-017 Owner: SPXS Country: US Constellation: starlink
LEOCIRCULAR

About Starlink 3611

Description loading...

Live Position

Loading 3D Globe...

Upcoming Passes

Altitude History

Altitude vs Time

uPlot chart will show altitude changes over time

Two-Line Element Set

1 51779U 22017M 25304.68922022 .00001837 00000-0 13365-3 0 9996
2 51779 53.2172 198.2774 0001434 93.5907 266.5250 15.08794420203094
Epoch: Oct 31, 2025 • Age: 24 hours

Current Status

Altitude 554.6 km
Velocity 7.58 km/s
Sub-Earth Point -41.56°S, 130.71°W
Launch Date Feb 25, 2022
Age 3.6 years
Type internet

Technical Details

Classification Payload
Mass 297.00 kg
Dry Mass 275.00 kg
Total Mass 297.00 kg
Length 0.20 m
Diameter 2.80 m
Span 9.00 m
Shape Box + pan
Manufacturer SPXS
Bus Type Starlink
Phase Status In Orbit
Owner/State SPXS/US

Large Constellations

Loading constellations...